Surface/Precipitation History
01/30/2015 07:40  to  1/31/2015 07:40
Change End Date:
Date/Time
(MST)
Sf
Temp Chem Water Layer Surface Precipitation
Sf Sub Frz Factor Pct Depth IcePct Cond Salin Type Intens Accum Rate
01/31/2015 07:11 Ice Watch 22.5F 29F - 5 - - - 0 mhos 32 None None - -
01/31/2015 07:04 Ice Watch 22.5F 29F - 5 - - - 0 mhos 32 None None - -
01/31/2015 06:54 Ice Watch 22.1F 29F - 5 - - - 0 mhos 33 None None - -
01/31/2015 06:44 Ice Watch 21.7F 29F - 5 - - - 0 mhos 33 None None - -
01/31/2015 06:39 Ice Watch 21.7F 29F - 5 - - - 0 mhos 33 None None - -
01/31/2015 06:34 Ice Watch 21.6F 29F - 5 - - - 0 mhos 33 None None - -
01/31/2015 06:24 Ice Watch 21.4F 29F - 5 - - - 0 mhos 34 None None - -
01/31/2015 06:14 Ice Watch 21.0F 29F - 5 - - - 0 mhos 34 None None - -
01/31/2015 06:08 Ice Watch 20.7F 29F - 5 - - - 0 mhos 35 None None - -
01/31/2015 06:04 Ice Watch 20.3F 30F - 5 - - - 0 mhos 35 None None - -
01/31/2015 05:54 Ice Watch 19.9F 30F - 5 - - - 0 mhos 35 None None - -
01/31/2015 05:44 Ice Watch 19.4F 30F - 5 - - - 0 mhos 36 None None - -
01/31/2015 05:38 Ice Watch 19.0F 30F - 5 - - - 0 mhos 37 None None - -
01/31/2015 05:34 Ice Watch 18.9F 30F - 5 - - - 0 mhos 38 None None - -
01/31/2015 05:24 Ice Watch 18.9F 30F - 5 - - - 0 mhos 38 None None - -
Date/Time
(MST)
Sf
Temp Chem Water Layer Surface Precipitation
Sf Sub Frz Factor Pct Depth IcePct Cond Salin Type Intens Accum Rate
01/31/2015 05:14 Ice Watch 18.9F 30F - 5 - - - 0 mhos 37 None None - -
01/31/2015 05:09 Ice Watch 18.7F 30F - 5 - - - 0 mhos 37 None None - -
01/31/2015 05:04 Ice Watch 18.7F 30F - 5 - - - 0 mhos 37 None None - -
01/31/2015 04:54 Ice Watch 18.3F 30F - 5 - - - 0 mhos 37 None None - -
01/31/2015 04:44 Ice Watch 18.3F 30F - 5 - - - 0 mhos 37 None None - -
01/31/2015 04:40 Ice Watch 18.1F 30F - 5 - - - 0 mhos 37 None None - -
01/31/2015 04:34 Ice Watch 17.8F 30F - 5 - - - 0 mhos 38 None None - -
01/31/2015 04:24 Ice Watch 17.8F 30F - 5 - - - 0 mhos 38 None None - -
01/31/2015 04:14 Ice Watch 18.0F 30F - 5 - - - 0 mhos 37 None None - -
01/31/2015 04:08 Ice Watch 17.8F 30F - 5 - - - 0 mhos 37 None None - -
01/31/2015 04:04 Ice Watch 17.6F 30F - 5 - - - 0 mhos 38 None None - -
01/31/2015 03:54 Ice Watch 17.4F 30F - 5 - - - 0 mhos 37 None None - -
01/31/2015 03:44 Ice Watch 17.1F 30F - 5 - - - 0 mhos 34 None None - -
01/31/2015 03:40 Ice Watch 17.1F 30F - 5 - - - 0 mhos 33 None None - -
01/31/2015 03:34 Ice Watch 17.2F 30F - 5 - - - 0 mhos 33 None None - -
Date/Time
(MST)
Sf
Temp Chem Water Layer Surface Precipitation
Sf Sub Frz Factor Pct Depth IcePct Cond Salin Type Intens Accum Rate
01/31/2015 03:24 Ice Watch 17.2F 30F - 5 - - - 0 mhos 37 None None - -
01/31/2015 03:14 Ice Watch 17.4F 30F - 5 - - - 0 mhos 36 None None - -
01/31/2015 03:10 Ice Watch 17.4F 30F - 5 - - - 0 mhos 36 None None - -
01/31/2015 03:03 Ice Watch 17.6F 30F - 5 - - - 0 mhos 32 None None - -
01/31/2015 02:53 Ice Watch 18.0F 30F - 5 - - - 0 mhos 31 None None - -
01/31/2015 02:43 Ice Watch 18.1F 30F - 5 - - - 0 mhos 34 None None - -
01/31/2015 02:40 Ice Watch 18.1F 30F - 5 - - - 0 mhos 31 None None - -
01/31/2015 02:33 Ice Watch 18.0F 30F - 5 - - - 0 mhos 31 None None - -
01/31/2015 02:23 Ice Watch 17.8F 30F - 5 - - - 0 mhos 31 None None - -
01/31/2015 02:13 Ice Watch 18.0F 30F - 5 - - - 0 mhos 34 None None - -
01/31/2015 02:10 Ice Watch 18.1F 30F - 5 - - - 0 mhos 34 None None - -
01/31/2015 02:03 Ice Watch 18.1F 30F - 5 - - - 0 mhos 33 None None - -
01/31/2015 01:53 Ice Watch 18.0F 30F - 5 - - - 0 mhos 29 None None - -
01/31/2015 01:43 Ice Watch 18.1F 30F - 5 - - - 0 mhos 28 None None - -
01/31/2015 01:40 Ice Watch 18.3F 30F - 5 - - - 0 mhos 28 None None - -
Date/Time
(MST)
Sf
Temp Chem Water Layer Surface Precipitation
Sf Sub Frz Factor Pct Depth IcePct Cond Salin Type Intens Accum Rate
01/31/2015 01:33 Ice Watch 18.3F 30F - 5 - - - 0 mhos 28 None None - -
01/31/2015 01:23 Ice Watch 18.5F 30F - 5 - - - 0 mhos 27 None None - -
01/31/2015 01:13 Ice Watch 19.0F 30F - 5 - - - 0 mhos 26 None None - -
01/31/2015 01:10 Ice Watch 19.0F 30F - 5 - - - 0 mhos 26 None None - -
01/31/2015 01:03 Ice Watch 19.0F 30F - 5 - - - 0 mhos 25 None None - -
01/31/2015 00:53 Ice Watch 18.9F 30F - 5 - - - 0 mhos 25 None None - -
01/31/2015 00:43 Ice Watch 18.5F 31F - 5 - - - 0 mhos 25 None None - -
01/31/2015 00:40 Ice Watch 18.5F 30F - 5 - - - 0 mhos 25 None None - -
01/31/2015 00:33 Ice Watch 18.5F 30F - 5 - - - 0 mhos 24 None None - -
01/31/2015 00:23 Ice Watch 18.7F 30F - 5 - - - 0 mhos 24 None None - -
01/31/2015 00:20 Ice Watch 18.9F 30F - 5 - - - 0 mhos 24 None None - -
01/31/2015 00:13 Ice Watch 19.0F 30F - 5 - - - 0 mhos 23 None None - -
01/31/2015 00:03 Ice Watch 18.9F 30F - 5 - - - 0 mhos 23 None None - -
01/31/2015 00:00 Ice Watch 18.9F 30F - 5 - - - 0 mhos 23 None None - -
01/30/2015 23:53 Ice Watch 19.0F 30F - 5 - - - 0 mhos 23 None None - -
Date/Time
(MST)
Sf
Temp Chem Water Layer Surface Precipitation
Sf Sub Frz Factor Pct Depth IcePct Cond Salin Type Intens Accum Rate
01/30/2015 23:43 Ice Watch 19.0F 30F - 5 - - - 0 mhos 22 None None - -
01/30/2015 23:40 Ice Watch 19.0F 30F - 5 - - - 0 mhos 22 None None - -
01/30/2015 23:33 Ice Watch 19.0F 30F - 5 - - - 0 mhos 21 None None - -
01/30/2015 23:23 Ice Watch 19.0F 30F - 5 - - - 0 mhos 21 None None - -
01/30/2015 23:13 Ice Watch 19.2F 30F - 5 - - - 0 mhos 20 None None - -
01/30/2015 23:11 Ice Watch 19.2F 30F - 5 - - - 0 mhos 20 None None - -
01/30/2015 23:03 Ice Watch 19.6F 30F - 5 - - - 0 mhos 19 None None - -
01/30/2015 22:53 Ice Watch 19.8F 30F - 5 - - - 0 mhos 19 None None - -
01/30/2015 22:43 Ice Watch 19.8F 30F - 5 - - - 0 mhos 18 None None - -
01/30/2015 22:42 Ice Watch 19.8F 30F - 5 - - - 0 mhos 18 None None - -
01/30/2015 22:33 Ice Watch 19.6F 30F - 5 - - - 0 mhos 17 None None - -
01/30/2015 22:23 Ice Watch 19.4F 30F - 5 - - - 0 mhos 17 None None - -
01/30/2015 22:13 Ice Watch 19.6F 30F - 5 - - - 0 mhos 17 None None - -
01/30/2015 22:11 Ice Watch 19.6F 30F - 5 - - - 0 mhos 17 None None - -
01/30/2015 22:03 Ice Watch 19.8F 30F - 5 - - - 0 mhos 16 None None - -
Date/Time
(MST)
Sf
Temp Chem Water Layer Surface Precipitation
Sf Sub Frz Factor Pct Depth IcePct Cond Salin Type Intens Accum Rate
01/30/2015 21:53 Ice Watch 20.1F 30F - 5 - - - 0 mhos 16 None None - -
01/30/2015 21:43 Ice Watch 20.3F 30F - 5 - - - 0 mhos 16 None None - -
01/30/2015 21:41 Ice Watch 20.3F 30F - 5 - - - 0 mhos 16 None None - -
01/30/2015 21:33 Ice Watch 20.3F 30F - 5 - - - 0 mhos 15 None None - -
01/30/2015 21:23 Ice Watch 20.7F 30F - 5 - - - 0 mhos 15 None None - -
01/30/2015 21:13 Ice Watch 20.8F 30F - 5 - - - 0 mhos 14 None None - -
01/30/2015 21:11 Ice Watch 21.0F 30F - 5 - - - 0 mhos 14 None None - -
01/30/2015 21:03 Ice Watch 21.2F 30F - 5 - - - 0 mhos 13 None None - -
01/30/2015 20:53 Ice Watch 21.4F 30F - 5 - - - 0 mhos 13 None None - -
01/30/2015 20:42 Ice Watch 21.7F 30F - 5 - - - 0 mhos 12 None None - -
01/30/2015 20:41 Ice Watch 21.9F 30F - 5 - - - 0 mhos 12 None None - -
01/30/2015 20:32 Ice Watch 22.1F 30F - 5 - - - 0 mhos 12 None None - -
01/30/2015 20:22 Ice Watch 22.1F 30F - 5 - - - 0 mhos 12 None None - -
01/30/2015 20:12 Ice Watch 22.3F 30F - 5 - - - 0 mhos 12 None None - -
01/30/2015 20:11 Ice Watch 22.5F 30F - 5 - - - 0 mhos 10 None None - -
Date/Time
(MST)
Sf
Temp Chem Water Layer Surface Precipitation
Sf Sub Frz Factor Pct Depth IcePct Cond Salin Type Intens Accum Rate
01/30/2015 20:02 Ice Watch 22.5F 30F - 5 - - - 0 mhos 10 None None - -
01/30/2015 19:52 Ice Watch 22.8F 30F - 5 - - - 0 mhos 10 None None - -
01/30/2015 19:42 Ice Watch 23.2F 30F - 5 - - - 0 mhos 9 None None - -
01/30/2015 19:40 Ice Watch 23.2F 30F - 5 - - - 0 mhos 9 None None - -
01/30/2015 19:32 Ice Watch 23.4F 30F - 5 - - - 0 mhos 9 None None - -
01/30/2015 19:22 Ice Watch 23.5F 30F - 5 - - - 0 mhos 8 None None - -
01/30/2015 19:12 Ice Watch 23.7F 30F - 5 - - - 0 mhos 8 None None - -
01/30/2015 19:11 Ice Watch 23.9F 30F - 5 - - - 0 mhos 8 None None - -
01/30/2015 19:02 Ice Watch 24.1F 30F - 5 - - - 0 mhos 8 None None - -
01/30/2015 18:52 Ice Watch 24.6F 30F - 5 - - - 0 mhos 8 None None - -
01/30/2015 18:42 Ice Watch 25.0F 30F - 5 - - - 0 mhos 7 None None - -
01/30/2015 18:40 Ice Watch 25.2F 30F - 5 - - - 0 mhos 7 None None - -
01/30/2015 18:32 Ice Watch 25.5F 30F - 5 - - - 0 mhos 7 None None - -
01/30/2015 18:22 Ice Watch 25.9F 30F - 5 - - - 0 mhos 6 None None - -
01/30/2015 18:12 Ice Watch 26.8F 30F - 5 - - - 0 mhos 6 None None - -
Date/Time
(MST)
Sf
Temp Chem Water Layer Surface Precipitation
Sf Sub Frz Factor Pct Depth IcePct Cond Salin Type Intens Accum Rate
01/30/2015 18:06 Ice Watch 27.1F 30F - 5 - - - 0 mhos 6 None None - -
01/30/2015 18:02 Ice Watch 27.5F 30F - 5 - - - 0 mhos 5 None None - -
01/30/2015 17:52 Ice Watch 28.6F 30F - 5 - - - 0 mhos 4 None None - -
01/30/2015 17:42 Ice Watch 29.7F 30F - 5 - - - 0 mhos 3 None None - -
01/30/2015 17:36 Ice Watch 30.6F 30F - 5 - - - 0 mhos 3 None None - -
01/30/2015 17:32 Ice Watch 31.3F 30F - 5 - - - 0 mhos 2 None None - -
01/30/2015 17:22 Trace Moisture 32.5F 30F - 5 - - - 0 mhos 2 None None - -
01/30/2015 17:12 Trace Moisture 34.5F 30F - 5 - - - 0 mhos 2 None None - -
01/30/2015 17:08 Trace Moisture 35.2F 30F - 5 - - - 0 mhos 1 None None - -
01/30/2015 17:02 Trace Moisture 37.2F 30F - 5 - - - 0 mhos 1 None None - -
01/30/2015 16:52 Trace Moisture 39.9F 30F - 5 - - - 0 mhos 1 None None - -
01/30/2015 16:42 Trace Moisture 41.7F 30F - 5 - - - 0 mhos 1 None None - -
01/30/2015 16:36 Dry 42.6F 30F - - - - - 0 mhos 1 None None - -
01/30/2015 16:32 Dry 43.5F 30F - - - - - 0 mhos 1 None None - -
01/30/2015 16:22 Dry 44.4F 30F - - - - - 0 mhos 1 None None - -
Date/Time
(MST)
Sf
Temp Chem Water Layer Surface Precipitation
Sf Sub Frz Factor Pct Depth IcePct Cond Salin Type Intens Accum Rate
01/30/2015 16:12 Dry 46.0F 30F - - - - - 0 mhos 1 None None - -
01/30/2015 16:10 Dry 46.4F 30F - - - - - 0 mhos 1 None None - -
01/30/2015 16:02 Dry 47.7F 30F - - - - - 0 mhos 1 None None - -
01/30/2015 15:52 Dry 48.7F 29F - - - - - 0 mhos 0 None None - -
01/30/2015 15:42 Dry 50.0F 29F - - - - - 0 mhos 1 None None - -
01/30/2015 15:33 Dry 50.7F 29F - - - - - 0 mhos 1 None None - -
01/30/2015 15:32 Dry 50.7F 29F - - - - - 0 mhos 1 None None - -
01/30/2015 15:22 Dry 51.4F 29F - - - - - 0 mhos 0 None None - -
01/30/2015 15:12 Dry 52.0F 29F - - - - - 0 mhos 0 None None - -
01/30/2015 15:02 Dry 52.9F 29F - - - - - 0 mhos 1 None None - -
01/30/2015 15:01 Dry 53.2F 29F - - - - - 0 mhos 1 None None - -
01/30/2015 14:52 Dry 53.8F 29F - - - - - 0 mhos 1 None None - -
01/30/2015 14:42 Dry 53.8F 29F - - - - - 0 mhos 1 None None - -
01/30/2015 14:32 Dry 53.8F 29F - - - - - 0 mhos 1 None None - -
01/30/2015 14:31 Dry 53.8F 29F - - - - - 0 mhos 1 None None - -
Date/Time
(MST)
Sf
Temp Chem Water Layer Surface Precipitation
Sf Sub Frz Factor Pct Depth IcePct Cond Salin Type Intens Accum Rate
01/30/2015 14:21 Dry 53.6F 29F - - - - - 0 mhos 1 None None - -
01/30/2015 14:20 Dry 53.6F 29F - - - - - 0 mhos 1 None None - -
01/30/2015 14:11 Dry 53.8F 29F - - - - - 0 mhos 1 None None - -
01/30/2015 14:01 Dry 53.2F 29F - - - - - 0 mhos 1 None None - -
01/30/2015 14:01 Dry 53.2F 29F - - - - - 0 mhos 1 None None - -
01/30/2015 13:51 Dry 52.7F 29F - - - - - 0 mhos 1 None None - -
01/30/2015 13:49 Dry 52.5F 29F - - - - - 0 mhos 1 None None - -
01/30/2015 13:41 Dry 51.8F 29F - - - - - 0 mhos 2 None None - -
01/30/2015 13:31 Dry 50.2F 29F - - - - - 0 mhos 2 None None - -
01/30/2015 13:31 Dry 50.2F 29F - - - - - 0 mhos 2 None None - -
01/30/2015 13:21 Dry 46.4F 29F - - - - - 0 mhos 2 None None - -
01/30/2015 13:11 Dry 48.0F 29F - - - - - 0 mhos 2 None None - -
01/30/2015 13:02 Dry 50.5F 29F - - - - - 0 mhos 3 None None - -
01/30/2015 13:01 Dry 50.9F 29F - - - - - 0 mhos 3 None None - -
01/30/2015 12:51 Dry 50.2F 29F - - - - - 0 mhos 3 None None - -
Date/Time
(MST)
Sf
Temp Chem Water Layer Surface Precipitation
Sf Sub Frz Factor Pct Depth IcePct Cond Salin Type Intens Accum Rate
01/30/2015 12:49 Dry 50.0F 29F - - - - - 0 mhos 3 None None - -
01/30/2015 12:41 Dry 48.9F 29F - - - - - 0 mhos 3 None None - -
01/30/2015 12:31 Dry 47.8F 29F - - - - - 0 mhos 4 None None - -
01/30/2015 12:21 Dry 46.4F 29F - - - - - 0 mhos 4 None None - -
01/30/2015 12:20 Dry 46.0F 29F - - - - - 0 mhos 4 None None - -
01/30/2015 12:11 Dry 45.5F 29F - - - - - 0 mhos 5 None None - -
01/30/2015 12:01 Dry 43.7F 29F - - - - - 0 mhos 5 None None - -
01/30/2015 12:01 Dry 43.9F 29F - - - - - 0 mhos 5 None None - -
01/30/2015 11:51 Dry 42.6F 29F - - - - - 0 mhos 6 None None - -
01/30/2015 11:41 Dry 41.2F 29F - - - - - 0 mhos 7 None None - -
01/30/2015 11:37 Dry 40.8F 29F - - - - - 0 mhos 7 None None - -
01/30/2015 11:31 Trace Moisture 39.6F 29F - 5 - - - 0 mhos 7 None None - -
01/30/2015 11:21 Trace Moisture 37.8F 29F - 5 - - - 0 mhos 8 None None - -
01/30/2015 11:11 Trace Moisture 36.1F 30F - 5 - - - 0 mhos 9 None None - -
01/30/2015 11:05 Trace Moisture 35.4F 30F - 5 - - - 0 mhos 9 None None - -
Date/Time
(MST)
Sf
Temp Chem Water Layer Surface Precipitation
Sf Sub Frz Factor Pct Depth IcePct Cond Salin Type Intens Accum Rate
01/30/2015 11:01 Trace Moisture 34.7F 30F - 5 - - - 0 mhos 9 None None - -
01/30/2015 10:51 Trace Moisture 32.7F 30F - 5 - - - 0 mhos 10 None None - -
01/30/2015 10:41 Ice Watch 31.1F 30F - 5 - - - 0 mhos 11 None None - -
01/30/2015 10:32 Ice Watch 29.1F 30F - 5 - - - 0 mhos 13 None None - -
01/30/2015 10:31 Ice Watch 28.8F 30F - 5 - - - 0 mhos 14 None None - -
01/30/2015 10:21 Ice Watch 26.6F 30F - 5 - - - 0 mhos 16 None None - -
01/30/2015 10:11 Ice Watch 24.6F 30F - 5 - - - 0 mhos 19 None None - -
01/30/2015 10:02 Ice Watch 22.5F 30F - 5 - - - 0 mhos 23 None None - -
01/30/2015 10:01 Ice Watch 21.9F 30F - 5 - - - 0 mhos 24 None None - -
01/30/2015 09:51 Ice Watch 18.0F 30F - 5 - - - 0 mhos 32 None None - -
01/30/2015 09:50 Ice Watch 18.0F 30F - 5 - - - 0 mhos 33 None None - -
01/30/2015 09:41 Ice Watch 17.8F 30F - 5 - - - 0 mhos 33 None None - -
01/30/2015 09:31 Ice Watch 17.6F 30F - 5 - - - 0 mhos 33 None None - -
01/30/2015 09:31 Ice Watch 17.4F 30F - 5 - - - 0 mhos 33 None None - -
01/30/2015 09:20 Ice Watch 17.2F 30F - 5 - - - 0 mhos 33 None None - -
Date/Time
(MST)
Sf
Temp Chem Water Layer Surface Precipitation
Sf Sub Frz Factor Pct Depth IcePct Cond Salin Type Intens Accum Rate
01/30/2015 09:10 Ice Watch 17.2F 30F - 5 - - - 0 mhos 34 None None - -
01/30/2015 09:06 Ice Watch 17.2F 30F - 5 - - - 0 mhos 33 None None - -
01/30/2015 09:00 Ice Watch 16.9F 30F - 5 - - - 0 mhos 34 None None - -
01/30/2015 08:50 Ice Watch 16.7F 30F - 5 - - - 0 mhos 34 None None - -
01/30/2015 08:50 Ice Watch 16.7F 30F - 5 - - - 0 mhos 34 None None - -
01/30/2015 08:40 Ice Watch 16.5F 30F - 5 - - - 0 mhos 36 None None - -
01/30/2015 08:31 Ice Watch 16.3F 30F - 5 - - - 0 mhos 35 None None - -
01/30/2015 08:30 Ice Watch 16.3F 30F - 5 - - - 0 mhos 35 None None - -
01/30/2015 08:20 Ice Watch 16.2F 30F - 5 - - - 0 mhos 36 None None - -
01/30/2015 08:18 Ice Watch 16.2F 30F - 5 - - - 0 mhos 36 None None - -
01/30/2015 08:10 Ice Watch 16.0F 30F - 5 - - - 0 mhos 37 None None - -
01/30/2015 08:01 Ice Watch 16.0F 30F - 5 - - - 0 mhos 36 None None - -
01/30/2015 08:00 Ice Watch 16.0F 30F - 5 - - - 0 mhos 36 None None - -
01/30/2015 07:50 Ice Watch 16.0F 30F - 5 - - - 0 mhos 36 None None - -
01/30/2015 07:40 Ice Watch 16.2F 31F - 5 - - - 0 mhos 36 None None - -
Change End Date:
Copyright © 1998-2005 Surface Systems, Inc.
All Rights Reserved
Send comments about the data to:
SCAN Web ® is a registered trademark of Surface Systems, Inc.
SCAN Web Version 5.6